N919ZA KDEN-KAPA

Flight info

Callsign N919ZA
Flight time 0h 26m
Altitude VFR
Route /FF
Aircraft C172/L-DOV/C

Departure

Time 2026-04-25 20:47
Airport Denver International Airport (KDEN)

Arrival

Time 2026-04-25 21:13
Airport Centennial Airport (KAPA)
Time Latitude Longitude Altitude Speed Heading
2026-04-25 20:40 39.90872 -105.11220 5635 ft 0 kts 126°
2026-04-25 20:42 39.90842 -105.11183 5633 ft 9 kts 143°
2026-04-25 20:43 39.90784 -105.11167 5631 ft 8 kts 143°
2026-04-25 20:43 39.90751 -105.11106 5629 ft 8 kts 120°
2026-04-25 20:43 39.90720 -105.11049 5628 ft 9 kts 126°
2026-04-25 20:43 39.90674 -105.10960 5624 ft 15 kts 123°
2026-04-25 20:44 39.90606 -105.10827 5619 ft 20 kts 125°
2026-04-25 20:44 39.90522 -105.10669 5613 ft 23 kts 124°
2026-04-25 20:44 39.90428 -105.10493 5605 ft 23 kts 126°
2026-04-25 20:44 39.90340 -105.10328 5591 ft 22 kts 123°
2026-04-25 20:45 39.90261 -105.10174 5582 ft 12 kts 125°
2026-04-25 20:45 39.90224 -105.10133 5577 ft 3 kts 196°
2026-04-25 20:45 39.90191 -105.10158 5578 ft 12 kts 212°
2026-04-25 20:45 39.90167 -105.10247 5582 ft 12 kts 297°
2026-04-25 20:46 39.90288 -105.10481 5600 ft 49 kts 304°
2026-04-25 20:46 39.90538 -105.10960 5620 ft 77 kts 303°
2026-04-25 20:46 39.90854 -105.11560 5728 ft 82 kts 303°
2026-04-25 20:46 39.91189 -105.12199 5836 ft 88 kts 305°
2026-04-25 20:47 39.91539 -105.12870 5992 ft 92 kts 305°
2026-04-25 20:47 39.91879 -105.13578 6160 ft 93 kts 304°
2026-04-25 20:47 39.92272 -105.14211 6304 ft 90 kts 348°
2026-04-25 20:47 39.92781 -105.13978 6515 ft 80 kts 34°
2026-04-25 20:48 39.93275 -105.13597 6672 ft 84 kts 37°
2026-04-25 20:48 39.93598 -105.13054 6817 ft 76 kts 103°
2026-04-25 20:48 39.93197 -105.12591 6907 ft 84 kts 145°
2026-04-25 20:48 39.92674 -105.12179 7009 ft 89 kts 148°
2026-04-25 20:49 39.92138 -105.11772 7120 ft 91 kts 148°
2026-04-25 20:49 39.91594 -105.11357 7286 ft 90 kts 147°
2026-04-25 20:49 39.91054 -105.10945 7447 ft 91 kts 148°
2026-04-25 20:49 39.90481 -105.10505 7504 ft 101 kts 147°
2026-04-25 20:50 39.89844 -105.10016 7508 ft 111 kts 148°
2026-04-25 20:50 39.89159 -105.09488 7509 ft 118 kts 148°
2026-04-25 20:50 39.88447 -105.08943 7505 ft 119 kts 147°
2026-04-25 20:50 39.87743 -105.08402 7501 ft 118 kts 148°
2026-04-25 20:51 39.87051 -105.07871 7528 ft 112 kts 148°
2026-04-25 20:51 39.86372 -105.07350 7501 ft 113 kts 148°
2026-04-25 20:51 39.85688 -105.06826 7499 ft 116 kts 148°
2026-04-25 20:51 39.85000 -105.06301 7495 ft 112 kts 148°
2026-04-25 20:52 39.84327 -105.05777 7505 ft 112 kts 148°
2026-04-25 20:52 39.84105 -105.05608 7490 ft 116 kts 149°
2026-04-25 20:52 39.83167 -105.04893 7512 ft 117 kts 148°
2026-04-25 20:52 39.82462 -105.04353 7515 ft 118 kts 148°
2026-04-25 20:53 39.81748 -105.03806 7514 ft 118 kts 148°
2026-04-25 20:53 39.81039 -105.03263 7518 ft 119 kts 147°
2026-04-25 20:53 39.80343 -105.02734 7509 ft 117 kts 148°
2026-04-25 20:53 39.79404 -105.02003 7504 ft 116 kts 148°
2026-04-25 20:54 39.78944 -105.01661 7500 ft 113 kts 148°
2026-04-25 20:54 39.78283 -105.01151 7507 ft 114 kts 148°
2026-04-25 20:54 39.77586 -105.00617 7507 ft 117 kts 147°
2026-04-25 20:54 39.76884 -105.00080 7508 ft 118 kts 149°
2026-04-25 20:55 39.76178 -104.99542 7489 ft 117 kts 148°
2026-04-25 20:55 39.75480 -104.99008 7490 ft 117 kts 148°
2026-04-25 20:55 39.74781 -104.98474 7494 ft 116 kts 148°
2026-04-25 20:55 39.74010 -104.98159 7499 ft 117 kts 166°
2026-04-25 20:56 39.73210 -104.97927 7493 ft 119 kts 165°
2026-04-25 20:56 39.72414 -104.97679 7449 ft 121 kts 162°
2026-04-25 20:56 39.71637 -104.97441 7507 ft 114 kts 165°
2026-04-25 20:56 39.70844 -104.97185 7525 ft 115 kts 165°
2026-04-25 20:57 39.70050 -104.96949 7526 ft 113 kts 162°
2026-04-25 20:57 39.69286 -104.96708 7495 ft 111 kts 164°
2026-04-25 20:57 39.68506 -104.96463 7498 ft 119 kts 163°
2026-04-25 20:57 39.67690 -104.96201 7490 ft 122 kts 164°
2026-04-25 20:58 39.66861 -104.95946 7497 ft 124 kts 164°
2026-04-25 20:58 39.66025 -104.95682 7520 ft 121 kts 163°
2026-04-25 20:58 39.65220 -104.95429 7520 ft 115 kts 163°
2026-04-25 20:58 39.64434 -104.95182 7496 ft 114 kts 165°
2026-04-25 20:59 39.63672 -104.94940 7494 ft 113 kts 163°
2026-04-25 20:59 39.62903 -104.94700 7496 ft 116 kts 163°
2026-04-25 20:59 39.62131 -104.94459 7508 ft 115 kts 162°
2026-04-25 20:59 39.61337 -104.94209 7503 ft 119 kts 163°
2026-04-25 21:00 39.60526 -104.93964 7496 ft 121 kts 163°
2026-04-25 21:00 39.59985 -104.93809 7491 ft 121 kts 167°
2026-04-25 21:00 39.58080 -104.93375 7499 ft 119 kts 168°
2026-04-25 21:01 39.57261 -104.93187 7514 ft 117 kts 168°
2026-04-25 21:01 39.56471 -104.93000 7521 ft 115 kts 165°
2026-04-25 21:01 39.55667 -104.92807 7502 ft 115 kts 168°
2026-04-25 21:01 39.54889 -104.92631 7490 ft 115 kts 167°
2026-04-25 21:02 39.54113 -104.92471 7471 ft 114 kts 168°
2026-04-25 21:02 39.53343 -104.92295 7481 ft 111 kts 167°
2026-04-25 21:02 39.52575 -104.92138 7481 ft 113 kts 170°
2026-04-25 21:02 39.51791 -104.91982 7476 ft 116 kts 167°
2026-04-25 21:03 39.51008 -104.91832 7480 ft 111 kts 168°
2026-04-25 21:03 39.50269 -104.91712 7490 ft 106 kts 172°
2026-04-25 21:03 39.49534 -104.91575 7471 ft 108 kts 167°
2026-04-25 21:03 39.48772 -104.91439 7473 ft 109 kts 167°
2026-04-25 21:04 39.48009 -104.91313 7476 ft 111 kts 169°
2026-04-25 21:04 39.47240 -104.91170 7481 ft 114 kts 168°
2026-04-25 21:04 39.46451 -104.90991 7482 ft 114 kts 168°
2026-04-25 21:04 39.45677 -104.90800 7485 ft 111 kts 168°
2026-04-25 21:05 39.44919 -104.90629 7480 ft 112 kts 168°
2026-04-25 21:05 39.44152 -104.90463 7475 ft 109 kts 167°
2026-04-25 21:05 39.43401 -104.90324 7473 ft 109 kts 169°
2026-04-25 21:05 39.42662 -104.90162 7483 ft 110 kts 169°
2026-04-25 21:06 39.41888 -104.90009 7468 ft 110 kts 166°
2026-04-25 21:06 39.41129 -104.89884 7476 ft 109 kts 168°
2026-04-25 21:06 39.40383 -104.89754 7467 ft 108 kts 166°
2026-04-25 21:06 39.39889 -104.89672 7469 ft 108 kts 168°
2026-04-25 21:07 39.38951 -104.89280 7461 ft 107 kts 126°
2026-04-25 21:07 39.38953 -104.88383 7471 ft 109 kts 60°
2026-04-25 21:07 39.39436 -104.87602 7467 ft 114 kts 57°
2026-04-25 21:07 39.39934 -104.86802 7479 ft 115 kts 54°
2026-04-25 21:08 39.40420 -104.85963 7476 ft 118 kts 53°
2026-04-25 21:08 39.41149 -104.85427 7477 ft 125 kts 28°
2026-04-25 21:08 39.41807 -104.84802 7467 ft 118 kts 43°
2026-04-25 21:08 39.42563 -104.84388 7474 ft 123 kts
2026-04-25 21:09 39.44345 -104.84400 7490 ft 130 kts
2026-04-25 21:09 39.45235 -104.84444 7496 ft 129 kts
2026-04-25 21:09 39.46141 -104.84492 7483 ft 129 kts
2026-04-25 21:10 39.47044 -104.84542 7479 ft 132 kts
2026-04-25 21:10 39.47947 -104.84593 7507 ft 126 kts
2026-04-25 21:10 39.48863 -104.84641 7348 ft 135 kts
2026-04-25 21:10 39.49800 -104.84699 7155 ft 127 kts
2026-04-25 21:11 39.50622 -104.84751 6991 ft 106 kts
2026-04-25 21:11 39.51363 -104.84781 6830 ft 109 kts
2026-04-25 21:11 39.52108 -104.84824 6699 ft 104 kts
2026-04-25 21:11 39.52817 -104.84869 6561 ft 102 kts
2026-04-25 21:12 39.53519 -104.84924 6402 ft 98 kts
2026-04-25 21:12 39.54190 -104.84947 6228 ft 96 kts
2026-04-25 21:12 39.54841 -104.84960 6093 ft 91 kts 359°
2026-04-25 21:12 39.55251 -104.84980 6006 ft 88 kts 358°
2026-04-25 21:13 39.55961 -104.85034 5839 ft 55 kts 356°
2026-04-25 21:13 39.56250 -104.85052 5832 ft 33 kts
2026-04-25 21:13 39.56445 -104.85057 5831 ft 23 kts 356°
2026-04-25 21:13 39.56503 -104.85009 5831 ft 8 kts 87°
2026-04-25 21:14 39.56506 -104.84944 5832 ft 4 kts 81°
2026-04-25 21:14 39.56506 -104.84940 5832 ft 0 kts 90°
2026-04-25 21:14 39.56508 -104.84932 5832 ft 1 kts 60°
2026-04-25 21:15 39.56520 -104.84922 5833 ft 8 kts 10°
2026-04-25 21:15 39.56606 -104.84924 5835 ft 15 kts 359°
2026-04-25 21:15 39.56688 -104.84901 5835 ft 15 kts 75°
2026-04-25 21:15 39.56752 -104.84837 5836 ft 10 kts